Погода в Олекминске

Погода в Олекминске : погода сейчас, прогноз погоды и архив. Всё, что Вы хотите узнать о погоде в Олекминске!

Хотите узнать прогноз погоды в Олекминске? Тогда Вам сюда: Погода в Олекминске

Поиск расширенной информации на нашем сайте:

Другие новости

Новости СМИ2

Главная страница сайта

Новости сайта

03.07.2017

Напоминаем, что на нашем специализированном сайте Метеоцентр.Азия вы можете получить высокодетализированные автоматические прогнозы погоды по пунктам России, СНГ и мира в авиационном формате (включающие направление и скорость ветра, видимость, явления погоды, количество и форму облачности, нижнюю и верхнюю границу облачности).

Рекомендуем: ремонт iphone 3gs

Погода в Олекминске - сегодня

Время (UTC), дата Ветер
(°,м/с) 
Видим.   Явления Облачность Т
(°С)
Тd
(°С)
f(%) Тe
(°С)
Pmin
(гПа)
dP
(гПа)
Po
(мм)
O2
(г/м3)
Тmin Tmax R s Состояние
почвы
06 17.02.18 270 (З) 20000 м  слаб. снег  10/0 средняя, верхняя 
[Ac trans|Cs]
-21.9 -23.9 84 -25  1022.7  -1.2  744  327           
09 17.02.18 250 (З) 20000 м  в посл. час снег  10/0 средняя, верхняя 
[Ac trans|Ci fib]
-22.5 -24.3 85 -23  1022.6  -0.4  743  328           
15 17.02.18 250 (З) 10 км  слаб. снег  10/0 верхняя 
[Cs]
-26.2 -28 85 -30  1023.5  744  333           
18 17.02.18 240 (ЮЗ) 4000 м  слаб. снег  10/0 средняя, верхняя 
[Ac trans|Cs]
-23.5 -25.4 84 -27  1023.7  0.7  744  330           
21 17.02.18 230 (ЮЗ) 20000 м  в посл. час снег  10/0 верхняя 
[Ci fib]
-24.2 -26 85 -27  1024.8  0.5  745  331           
03 18.02.18 220 (ЮЗ) 10 км  слаб. снег  10/0 верхняя 
[Cs]
-25 -26.8 85 -30  1025.6  0.3  745  332           
06 18.02.18 240 (ЮЗ) 10 км  слаб. снег  10/3 600 м верхняя 
[Cu hum|Cs]
-23.1 -25 84 -29  1025  -0.4  745  330           
09 18.02.18 270 (З) 20000 м  слаб. снег  10/0 верхняя 
[Cs]
-24.8 -26.6 85 -30  1025.5  0.3  745  332           
15 18.02.18 240 (ЮЗ) 10 км  слаб. снег  10/0 средняя, верхняя 
[Ac trans|Cs]
-24.8 -26.6 85 -30  1025.6  -0.3  745  332           
18 18.02.18 220 (ЮЗ) 4000 м  слаб. снег  10/0 средняя, верхняя 
[Ac trans|Cs]
-25.7 -27.5 85 -29  1025.1  -0.5  745  333           
21 18.02.18 230 (ЮЗ) 10 км  слаб. снег  10/0 средняя, верхняя 
[Ac trans|Cs]
-24.5 -26.4 84 -31  1024.4  -0.7  744  331           
03 19.02.18 240 (ЮЗ) 20000 м  слаб. снег  10/0 средняя, верхняя 
[Ac trans|Cs]
-23.2 -25 85 -28  1023  -0.6  744  329           
06 19.02.18 240 (ЮЗ) 4000 м  слаб. снег  10/0 верхняя 
[Cs]
-20.4 -23 80 -25  1021.4  -1.3  743  325           
09 19.02.18 230 (ЮЗ) 10 км  слаб. снег  10/0 верхняя 
[Cs]
-20.9 -23.4 80 -21  1021  -0.4  742  326           
15 19.02.18 270 (З) 10 км  слаб. снег  10/0 верхняя 
[Cs]
-23.5 -26 80 -27  1020.6  0.8  742  329           
18 19.02.18 тихо ()   10 км  слаб. снег  10/0 верхняя 
[Cs]
-26.4 -29 79 -26  1020.2  -0.7  741  332           
21 19.02.18 тихо ()   10 км  слаб. снег  10/0 верхняя 
[Cs]
-24.7 -26.5 85 -25  1019.1  -0.9  741  330           
03 20.02.18 240 (ЮЗ) 4000 м  слаб. снег  10/0 средняя, верхняя 
[Ac trans|Cs]
-22.4 -24.2 85 -25  1018.4  740  327           
06 20.02.18 240 (ЮЗ) 10 км  слаб. снег  10/3 1000 м средняя, верхняя 
[Sc|Ac trans|Cs]
-21 -23.5 80 -24  1017.5  -0.7  740  325           
09 20.02.18 тихо ()   10 км  слаб. снег  10/0 средняя, верхняя 
[Ac trans|Cs]
-22 -24.6 79 -22  1017.4  -0.1  740  326           
15 20.02.18 тихо ()   10 км  слаб. снег  10/0 средняя, верхняя 
[Ac trans|Cs]
-24.5 -26.4 84 -25  1017.2  -0.4  739  329           
18 20.02.18 тихо ()   10 км  слаб. снег  10/0 средняя, верхняя 
[Ac trans|Cs]
-28.5 -30.4 84 -29  1017.9  0.2  739  334           
21 20.02.18 тихо ()   10 км  слаб. снег  10/0 средняя, верхняя 
[Ac trans|Cs]
-30.1 -31.9 84 -30  1018  -0.2  739  337           
03 21.02.18 250 (З) 4000 м  слаб. снег  10/0 средняя, верхняя 
[Ac trans|Cs]
-27.5 -29.3 85 -31  1018.2  0.6  740  333           
06 21.02.18 250 (З) 10 км  слаб. снег  10/0 средняя, верхняя 
[Ac trans|Cs]
-24.8 -27.3 80 -28  1017.8  -0.1  740  330           
Время (UTC), дата Ветер
(°,м/с) 
Видим.   Явления Облачность Т
(°С)
Тd
(°С)
f(%) Тe
(°С)
Pmin
(гПа)
dP
(гПа)
Po
(мм)
O2
(г/м3)
Тmin Tmax R s Состояние
почвы

Для получения пояснительной информации подведите курсор к названию столбца.

ПОГОДА в Олекминске - архив

Всё, что Вы хотите узнать о погоде в Олекминске - удобно и подробно!

Выберите нужную дату (начиная с 1 января 2015* года) и нажмите кнопку "Найти".
Будут отображены архивные сводки погоды по пункту Олекминск, начиная с указанной даты.


Отображать данные в формате CSV (для использования в таблицах Excel)


Внимание! Наш архив погоды предназначен исключительно для личного некоммерческого использования в познавательных целях. Если Вам необходимы официальные справки о состоянии погоды (для производственных, юридических, коммерческих и т.п. целей), обращайтесь в органы Росгидромета.

*Примечание: данная дата относится к архиву по метеостанциям СССР (Россия, СНГ, Балтия).
Архив по метеостанциям Зарубежной Европы и Азии (кроме Китая) хранится 10 дней, по другим регионам земного шара (Китай, Африка, Америка, Австралия, Океания) - 1 день.

Олекминск - район местоположения метеостанции


Название, широта, долгота, высота метеостанции:
Олекминск 60.4°ш. 120.4°д. 226 м над ур. моря [Российская Федерация]

Дополнительная информация

В oтличие oт бoльшинства пoгoдных сайтoв мы публикуем пoдрoбную метеoинфoрмацию в детальнoм прoфессиoнальнoм фoрмате.

Характеристики температуры и влажнoсти вoздуха измеряются на высoте 2 м в тени вдали oт зданий и деревьев.
Скoрoсть ветра измеряется на высoте 10 м (на урoвне рoста челoвека скoрoсть ветра ниже в 1.5-2 раза). Если метеoстанция нахoдится в гoрoде или в лесу, тo скoрoсть ветра занижена на 2-4 м/с пo сравнению с oткрытым местoм. Скoрoсть ветра над акватoриями крупных рек и oзёр, а также на вершинах хoлмoв на 2-5 м/с выше, чем в oбычных услoвиях.
Атмoсфернoе давление в разных тoчках местнoсти мoжет значительнo oтличаться oт давления на метеoстанции, в зависимoсти oт услoвий рельефа (при пoдъёме на 10 м давление пoнижается примернo на 1 мм рт.ст.).